Regional Weather Roundup
Issued by NWS Jackson, KY

Home | Current Version | Previous Version | Graphics & Text | Print | Product List | Glossary On
Versions: 1 2 3 4 5 6 7 8 9 10 11 12 13 14 15 16 17 18 19 20 21 22 23 24 25 26 27 28 29 30 31 32 33 34 35 36 37 38 39 40 41 42 43 44 45 46 47 48 49 50
000
ASUS43 KJKL 300919
RWRJKL

EAST KENTUCKY HOURLY WEATHER ROUNDUP
NATIONAL WEATHER SERVICE JACKSON KY
500 AM EDT TUE SEP 30 2014

NOTE: "FAIR" INDICATES FEW OR NO CLOUDS BELOW 12,000 FEET WITH
NO SIGNIFICANT WEATHER AND/OR OBSTRUCTIONS TO VISIBILITY.

* THESE REPORTS ARE NOT UNDER NWS QUALITY CONTROL AND MAY NOT
  REPORT WEATHER SUCH AS PRECIPITATION AND FOG.

KYZ079-080-083-085-087-088-110-112-115-119-120-301000
...EASTERN KENTUCKY...

CITY           SKY/WX    TMP DP  RH WIND       PRES   REMARKS
JACKSON        CLEAR     60  58  92 CALM      29.95S FOG
LONDON         FOG       57  55  93 CALM      29.96S VSB 1/4
SOMERSET*      FOG       59  59 100 CALM      29.96S VSB<1/4
MONTICELLO*    FOG       52  52 100 CALM      29.97S VSB 1/4
WILLIAMSBURG*    N/A    N/A N/A N/A CALM        N/A
MIDDLESBORO*   FOG       58  58 100 CALM      29.97F VSB 1
HARLAN APT*    CLOUDY    59  59 100 CALM      29.98S VSB 1/4
HAZARD APT*    SUNNY     59  59 100 CALM      29.95S FOG
BLACK MTN*       N/A     57  54  88 E2          N/A
PIKEVILLE APT* FOG       59  57  94 S3        29.95S VSB 3/4
BIG SANDY*     SUNNY     59  59  99 CALM      29.94S
MOREHEAD APT*  PTSUNNY   55  55 100 CALM      29.96R
ASHLAND*       CLOUDY    59  55  88 CALM      29.91R VSB 0
$$

KYZ035-036-041-042-044-050-067-078-099-301000
...CENTRAL KENTUCKY...

CITY           SKY/WX    TMP DP  RH WIND       PRES   REMARKS
MT STERLING*   CLEAR     52  52 100 SW3       29.96R FOG
FLEMING/MASON* CLEAR     55  52  88 CALM      29.95S
DANVILLE*      CLEAR     52  50  93 CALM      29.95S
RICHMOND*      CLEAR     52  50  93 S3        29.94S
LEXINGTON      CLEAR     57  52  83 S3        29.94S
FRANKFORT      CLEAR     52  50  93 CALM      29.93S
$$

KYZ091>093-OHZ055-061-077-WVZ005-015-034-035-042-301000
...SOUTHERN OHIO/WEST VIRGINIA...

CITY           SKY/WX    TMP DP  RH WIND       PRES   REMARKS
COVINGTON      CLEAR     56  51  84 CALM      29.92F
COLUMBUS       CLEAR     53  50  89 CALM      29.90S
DAYTON         PTCLDY    57  50  77 SW7       29.92S
WILMINGTON     CLEAR     50  47  89 S3        29.92F
HUNTINGTON     FOG       56  56 100 S3        29.91S VSB 1/4
CHARLESTON     FOG       59  58  96 CALM      29.92R VSB 1/2
PINEVILLE*     FOG       60  60 100 MISG      30.01S VSB 1/2
BECKLEY        CLEAR     54  52  93 S3        29.98S
BLUEFIELD      CLEAR     58  54  86 W8        30.00F
$$

VAZ002-007-008-TNZ017-027-036-066-071-301000
...SOUTHWEST VIRGINIA/EAST TENNESSEE...

CITY           SKY/WX    TMP DP  RH WIND       PRES   REMARKS
WISE*          FOG       55  55 100 SW3       30.01S VSB 1/4
JONESVILLE*    FOG       57  57 100 CALM      29.99S VSB<1/4
ABINGDON*      PTCLDY    55  55 100 CALM      29.99S FOG
BRISTOL        CLOUDY    55  53  93 CALM      29.98R FOG
KNOXVILLE      CLEAR     61  59  93 CALM      29.95R
OAK RIDGE      FOG       61  61 100 CALM      29.97R VSB 1/2
CROSSVILLE     CLEAR     59  54  83 CALM      29.99S
NASHVILLE      CLEAR     61  59  93 S3        29.94S
$$

...KEY TO REMARKS...
VSB - VISIBILITY IN MILES
WCI - WIND CHILL INDEX
HX  - HEAT INDEX

$$


USA.gov is the U.S. government's official web portal to all federal, state and local government web resources and services.